Regional Weather Roundup
Issued by NWS Lake Charles, LA

Home | Current Version | Previous Version | Text Only | Print | Product List | Glossary On
Versions: 1 2 3 4 5 6 7 8 9 10 11 12 13 14 15 16 17 18 19 20 21 22 23 24 25 26 27 28 29 30 31 32 33 34 35 36 37 38 39 40 41 42 43 44 45 46 47 48 49 50
000
ASUS44 KLCH 282310
RWRLCH
RWRLCH
REGIONAL WEATHER ROUNDUP
NATIONAL WEATHER SERVICE LAKE CHARLES LA
600 PM CDT THU AUG 28 2014

Note: "fair" indicates few or no clouds below 12,000 feet with no
significant weather and/or obstructions to visibility.


ACROSS SOUTHEAST TEXAS

CITY           SKY/WX    TMP DP  RH WIND       PRES   REMARKS
BEAUMONT       PTSUNNY   86  75  69 E13       29.89S
BEAUMONT CITY    N/A     85  75  70 E9        29.89S
ORANGE         MOCLDY    85  73  66 SE7       29.91S
JASPER         MOSUNNY   85  73  67 E5        29.93S
$$

ACROSS CENTRAL LOUISIANA

CITY           SKY/WX    TMP DP  RH WIND       PRES   REMARKS
LEESVILLE      SUNNY     87  70  56 S8        29.91F
FULLERTON        N/A     89  70  53 VRB5      29.89F
ALEXANDRIA INT MOSUNNY   79  71  76 SW9       29.90R THUNDER
ESLER FIELD    MOSUNNY   87  72  60 S3        29.91S
DERIDDER         N/A     84  74  72 CALM      29.93S HAZE
OAKDALE        PTCLDY    83  75  79 CALM      29.91F
OPELOUSAS        N/A     86  73  66 SE6       29.91S
$$

ACROSS SOUTHWEST AND SOUTH CENTRAL LOUISIANA

CITY           SKY/WX    TMP DP  RH WIND       PRES   REMARKS
SULPHUR        MOCLDY    87  72  61 E3        29.91F
LAKE CHARLES   PTSUNNY   86  73  65 E3        29.89F
CHENNAULT INT  MOSUNNY   86  72  62 CALM      29.91F
CAMERON PHI    CLEAR     84  77  79 SE13G20   29.90F
DEQUINCY         N/A     85  74  69 E5        29.90F
JENNINGS         N/A     86  75  70 SE5       29.90F
LAFAYETTE      LGT RAIN  81  73  76 SW8       29.91S
NEW IBERIA     PTSUNNY   88  75  65 S6        29.92R
ABBEVILLE      MOCLDY    86  75  69 SE6       29.91S THUNDER
PATTERSON      MOSUNNY   88  73  62 SE6       29.94S
SALT POINT       N/A     88  76  67 SE6       29.90S
$$

SELECTED SITES ACROSS THE REGION

CITY           SKY/WX    TMP DP  RH WIND       PRES   REMARKS
HOUSTON BUSH   PTSUNNY   86  72  62 SE14      29.87F
HOUSTON HOBBY  PTSUNNY   84  72  67 E6        29.87S
GALVESTON      CLOUDY    81  77  88 NE8       29.88S
COLLEGE STAT   MOSUNNY   88  72  58 E8        29.86F
CONROE         MOSUNNY   87  70  56 SE10      29.88F
HUNTSVILLE     PTSUNNY   80  74  81 CALM      29.89F
LUFKIN         PTSUNNY   88  72  58 SE9       29.90F
SHREVEPORT     PTSUNNY   92  68  45 SW6       29.87F
MONROE         MOSUNNY   83  72  69 NE5       29.92F
NATCHEZ MS     SUNNY     88  73  62 CALM      29.93F
BATON ROUGE    CLOUDY    85  74  69 VRB6      29.92S
N.O. INTL ARPT PTSUNNY   89  70  53 SE13      29.92S
SLIDELL        PTSUNNY   89  70  53 SE9       29.92F
$$

MARINE REPORTS

STATION/POSITION TIME  TEMP    WIND        PRES    VSBY  WAVE
                       AIR SEA DIR/SP/G                  HT/PER
                 (UTC) (F)     (DEG/KT/KT) (MB)    (MI)  (FT/S)
BUOY 30 S HIGH I 2300   81 86   50/ 10/ 14 1011.7R         3/ 5
SEA RIM ST PARK  2300   84     110/ 12/ 15 1012.6F
PORT ARTHUR      2300      87  110/  7/ 10 1012.3S
SABINE PASS N    2300   84 85  110/ 13/ 15 1012.2F
TEXAS POINT      2300   84 84  110/ 12/ 16 1012.3F
CALCASIEU PASS   2300   84 84  140/ 12/ 15 1013.4F
LK CHARLES BEACH 2300   86 88              1013.2F
MARSH ISLAND     NOT AVBL
FRESH WATER LOCK 2300   84 83   90/  5/  7 1012.8R
AMERADA PASS     2300   86 87  130/  6/ 10 1012.8S
$$


USA.gov is the U.S. government's official web portal to all federal, state and local government web resources and services.